Wind_Speed
94 94 95 95 94 94 95 95 95 95 94 94 94 92 91 89 86 82 79 75 75 75 76 77 77 78 79 79 79 80 81 81 82 84 85 87 91 90 91 90 92 93 93
99 99 98 99 99 99 99 99 100 99 98 96 96 94 91 89 87 85 81 80 80 80 82 83 85 87 88 86 85 85 85 87 86 88 92 92 95 95 92 91 92 92 94
104 102 102 102 102 103 102 100 98 98 97 96 92 91 90 89 89 86 86 86 88 87 87 91 90 92 92 92 94 93 93 94 93 93 93 98 99 97 95 95 92 95 99
107 105 104 103 102 102 100 100 99 98 97 96 94 90 90 91 93 94 94 94 91 93 93 92 93 96 98 100 98 100 101 101 102 101 103 101 99 102 103 102 103 106 104
111 110 108 106 105 104 101 101 101 101 102 102 100 98 97 98 96 93 92 91 94 94 95 92 97 91 100 105 100 100 106 113 112 113 111 109 112 117 116 115 108 103 108
113 111 108 108 107 108 106 105 104 98 94 94 97 94 92 92 92 92 95 93 97 97 100 98 97 102 105 110 108 109 116 119 123 120 119 122 125 128 128 124 121 112 106
112 110 108 106 102 99 98 93 92 89 86 89 91 90 89 90 88 90 92 93 95 99 97 105 112 111 110 113 113 116 120 126 127 130 130 129 128 129 123 120 110 100 95
108 104 103 99 99 98 97 96 95 95 93 97 103 100 97 97 98 95 99 102 107 112 114 116 117 116 117 120 122 123 127 131 133 133 130 130 124 112 107 96 91 83 79
103 104 103 101 101 102 103 103 103 104 104 106 107 106 105 106 107 111 114 113 113 115 120 120 122 122 123 128 131 129 131 132 130 128 122 114 106 97 88 79 73 67 69
99 99 97 95 98 100 101 102 103 104 107 110 110 111 110 110 111 113 114 114 118 119 124 126 127 127 126 125 123 123 122 121 119 114 107 100 92 83 76 68 63 62 61
102 103 101 100 101 103 106 106 106 107 106 108 109 111 112 114 115 117 118 118 121 124 125 126 123 121 121 120 118 113 106 100 95 93 88 83 78 70 62 57 55 53 52
82 81 82 81 82 85 90 92 96 101 107 110 110 111 113 114 115 116 116 116 117 118 120 119 117 114 111 104 98 93 86 83 79 77 74 69 61 56 50 47 46 45 45
85 87 85 86 93 95 96 90 95 96 100 99 105 108 108 110 109 110 109 107 103 100 99 99 99 95 91 86 82 78 72 69 66 63 60 55 51 47 42 41 39 40 39
91 93 96 95 96 93 87 86 84 84 85 87 86 86 86 88 91 92 92 92 92 89 86 82 79 76 74 73 71 66 64 60 57 54 50 45 43 40 35 36 35 34 33
85 84 83 79 75 73 72 71 71 73 74 75 76 77 78 79 80 80 81 80 80 79 77 73 69 65 62 61 60 56 54 51 49 46 40 39 36 32 31 30 29 26 25
64 64 64 65 63 62 63 64 66 67 68 70 70 70 71 71 70 71 71 70 68 67 67 63 59 57 55 53 52 51 50 44 42 39 35 34 30 27 25 24 22 19 18
53 54 56 57 56 57 57 58 60 62 62 64 66 66 65 64 62 61 61 60 59 59 58 55 52 50 48 46 46 45 42 38 35 33 31 28 24 23 20 18 17 15 15
42 44 47 48 51 51 54 54 54 56 55 60 60 58 59 58 56 55 54 53 52 50 50 49 47 45 43 42 41 37 35 31 29 28 26 23 22 18 16 13 12 12 13
39 43 44 43 42 46 47 48 47 49 49 46 46 52 52 51 49 47 47 45 45 44 43 42 42 40 37 36 33 31 30 26 25 25 22 21 19 16 14 13 14 12 12
35 37 36 37 39 41 42 41 39 38 39 40 38 35 43 44 41 41 41 42 41 37 34 34 32 33 34 32 28 27 24 22 22 23 22 21 18 16 16 16 18 15 14
31 32 32 33 35 35 35 35 35 34 35 38 40 42 40 33 35 37 35 34 33 33 33 30 25 26 27 24 24 22 21 20 21 23 23 20 18 17 17 18 20 18 17
29 32 34 35 37 38 37 38 38 37 38 40 40 41 42 39 35 30 29 30 29 27 27 26 23 22 22 19 22 18 18 19 22 23 23 20 19 21 19 21 21 21 18
33 33 35 36 37 37 39 39 40 41 42 40 40 39 38 40 36 33 33 31 27 24 24 23 20 20 18 18 19 17 18 20 23 24 23 21 20 21 24 25 24 22 22
35 34 37 35 35 36 37 37 38 41 42 43 41 41 38 37 33 30 29 29 25 22 22 21 19 18 17 18 18 18 20 22 24 24 23 22 22 24 27 29 28 27 26
36 39 40 39 41 42 43 42 41 41 42 43 43 41 38 36 33 29 26 25 26 22 20 18 17 17 17 17 19 20 22 23 25 25 24 22 23 28 29 31 30 29 28
42 45 41 39 40 43 42 41 41 40 40 41 39 39 34 30 31 28 25 24 24 22 19 15 15 15 16 17 20 21 23 25 25 24 23 24 25 30 31 31 32 30 29
Wind_Direction
271 271 273 275 277 276 277 277 278 279 280 282 283 285 285 285 284 283 281 280 279 279 279 279 279 280 280 280 280 280 279 277 276 277 277 278 277 275 272 269 269 267 265
270 271 272 274 275 276 277 278 279 279 280 281 283 285 284 283 281 281 279 278 277 278 279 280 279 277 277 279 280 281 282 281 281 278 279 276 275 274 274 273 270 267 265
267 269 271 272 274 275 276 278 279 279 280 281 281 280 280 280 279 278 279 279 278 278 277 279 283 285 285 286 287 288 288 285 283 281 281 280 279 277 276 271 268 263 263
268 269 271 273 274 275 277 278 278 279 279 279 279 279 278 278 279 280 281 280 281 287 287 287 287 288 289 290 289 287 288 289 289 291 289 285 284 283 282 280 280 279 275
270 271 271 271 271 272 272 273 275 277 278 278 279 280 281 282 284 285 285 286 284 287 285 286 285 285 283 286 287 283 283 287 290 288 287 287 285 284 284 283 281 277 278
271 273 274 275 275 275 276 278 280 282 281 280 282 283 282 281 280 280 279 277 275 280 283 282 280 280 282 281 282 279 280 284 285 289 288 285 285 283 284 283 281 281 278
271 271 271 273 274 275 276 275 275 274 269 271 274 272 272 273 273 271 274 272 274 276 276 278 281 281 279 281 281 281 281 283 284 285 287 287 287 286 285 283 284 281 276
272 273 273 272 274 273 272 272 271 269 265 264 271 271 269 268 268 266 269 270 270 273 276 278 280 281 281 281 281 282 283 285 286 286 287 286 287 286 285 285 283 281 276
269 271 271 272 272 272 271 271 270 270 270 268 269 270 270 266 268 268 271 273 273 275 275 277 278 280 280 280 281 281 281 283 286 286 287 288 288 288 288 286 284 281 275
268 268 270 269 269 271 270 271 271 269 269 270 270 271 271 271 271 271 274 273 273 276 278 278 277 279 282 282 283 284 285 286 286 286 286 288 288 289 288 287 283 278 274
271 270 269 269 268 268 267 268 269 270 270 270 271 270 270 270 271 271 272 274 274 275 276 278 280 281 282 284 284 285 284 284 284 284 284 285 287 288 286 283 278 275 272
271 273 274 272 270 268 266 266 267 267 266 268 269 270 271 273 274 275 276 276 277 278 278 280 281 281 282 284 285 285 285 285 285 284 283 284 287 286 285 281 278 275 272
272 274 274 272 273 274 276 275 276 277 274 272 270 270 273 275 276 277 279 279 280 279 279 279 280 283 284 284 284 284 285 283 283 282 283 285 284 283 283 279 277 274 272
268 268 270 273 274 275 275 276 276 277 277 277 278 279 278 277 277 277 278 278 278 280 282 282 282 282 282 282 283 283 283 281 282 283 283 283 282 282 279 275 271 270 273
272 274 274 274 275 275 275 277 276 276 276 277 277 277 277 278 278 279 280 280 281 283 283 283 284 283 282 282 283 285 284 284 285 284 284 281 278 275 269 266 269 270 270
270 271 272 272 274 275 276 278 279 279 280 281 282 282 283 283 282 282 283 282 283 284 283 283 283 282 281 281 283 283 284 284 282 282 278 272 268 264 259 261 263 264 265
270 273 274 276 278 278 280 280 281 284 285 286 287 287 288 288 287 286 286 285 286 286 284 283 283 283 283 281 281 281 281 278 277 273 266 259 256 250 251 250 253 248 250
277 278 279 282 283 284 283 283 286 286 288 289 288 290 289 291 291 290 289 288 287 286 284 284 284 285 283 281 279 278 273 270 267 261 250 246 241 238 238 233 220 219 228
278 278 280 282 284 286 289 291 288 286 284 281 289 288 289 290 292 291 291 289 290 290 287 284 284 284 282 277 276 272 266 263 257 245 237 230 228 227 214 199 191 194 197
282 283 286 286 286 287 287 291 297 299 303 304 304 304 302 303 304 301 299 297 295 291 286 282 283 282 279 278 273 265 259 252 241 232 223 218 214 208 196 186 185 181 177
297 296 295 296 297 298 298 304 304 307 309 313 317 312 306 304 304 300 293 289 289 288 289 288 284 277 273 271 265 257 250 238 226 219 214 208 203 198 187 182 182 176 176
310 313 310 308 306 304 306 310 313 312 315 317 319 318 313 311 309 305 299 291 289 287 288 288 286 281 275 262 257 245 236 226 215 210 206 201 198 192 181 176 172 170 162
316 316 318 312 309 309 308 314 319 318 318 319 317 316 312 309 307 304 303 300 296 291 289 288 284 278 269 254 246 231 222 213 207 202 201 196 190 184 173 174 170 164 161
318 314 318 319 322 319 316 313 315 318 316 317 319 319 317 313 305 303 298 294 290 288 286 283 281 274 259 247 234 219 209 203 201 196 195 192 186 181 174 176 171 173 176
316 316 315 318 320 321 319 318 317 315 317 317 317 318 314 312 310 305 300 294 294 294 288 282 278 267 251 237 227 208 200 197 196 192 191 191 185 180 175 173 171 171 173
322 322 322 318 315 315 312 313 311 311 314 316 318 321 321 320 308 299 296 292 291 291 287 282 273 258 241 230 219 202 194 190 192 189 189 188 184 180 179 178 174 175 172
Height
10679 10678 10676 10677 10676 10673 10670 10670 10670 10669 10667 10666 10663 10661 10658 10656 10652 10651 10649 10647 10645 10643 10641 10639 10638 10637 10634 10632 10630 10628 10626 10625 10624 10615 10615 10613 10610 10611 10610 10611 10611 10611 10612
10657 10655 10656 10654 10653 10651 10649 10647 10646 10645 10644 10642 10640 10637 10634 10632 10630 10629 10628 10626 10624 10622 10619 10615 10614 10612 10611 10607 10605 10603 10600 10597 10597 10594 10585 10583 10582 10577 10578 10578 10576 10578 10579
10633 10635 10634 10632 10630 10627 10626 10624 10621 10619 10618 10617 10616 10614 10612 10608 10606 10606 10604 10603 10600 10598 10595 10591 10587 10584 10582 10579 10575 10572 10568 10566 10565 10565 10561 10553 10548 10544 10543 10544 10543 10541 10538
10608 10611 10610 10610 10607 10603 10602 10600 10597 10594 10592 10592 10591 10591 10587 10585 10580 10578 10577 10574 10571 10566 10564 10563 10560 10556 10550 10545 10545 10541 10538 10534 10529 10524 10521 10518 10513 10506 10504 10508 10508 10504 10503
10581 10583 10584 10585 10581 10579 10581 10576 10573 10570 10566 10564 10564 10562 10559 10557 10553 10549 10546 10543 10542 10541 10538 10534 10532 10530 10526 10517 10515 10510 10508 10503 10497 10493 10489 10484 10476 10469 10466 10466 10465 10469 10467
10553 10555 10556 10553 10554 10551 10551 10549 10546 10542 10537 10536 10535 10534 10532 10531 10529 10526 10523 10522 10518 10516 10513 10510 10508 10506 10502 10494 10487 10482 10477 10472 10464 10457 10454 10448 10439 10433 10429 10423 10422 10423 10431
10523 10528 10528 10530 10530 10528 10525 10526 10522 10519 10518 10515 10512 10511 10509 10507 10504 10503 10500 10496 10495 10490 10487 10484 10480 10476 10475 10470 10459 10454 10449 10440 10429 10423 10419 10408 10402 10392 10387 10381 10376 10373 10371
10497 10501 10500 10504 10504 10502 10500 10499 10498 10495 10495 10492 10488 10486 10484 10483 10480 10478 10476 10473 10469 10465 10462 10458 10452 10445 10441 10434 10425 10421 10413 10404 10397 10390 10380 10373 10361 10355 10347 10344 10342 10338 10331
10476 10473 10474 10475 10476 10474 10472 10472 10470 10465 10464 10464 10462 10460 10457 10457 10454 10452 10450 10446 10441 10437 10430 10425 10421 10417 10411 10399 10393 10389 10379 10370 10365 10354 10341 10334 10324 10320 10316 10314 10309 10307 10299
10450 10448 10450 10450 10447 10446 10445 10442 10440 10438 10434 10432 10430 10429 10428 10425 10423 10418 10418 10415 10411 10406 10396 10391 10389 10380 10375 10369 10362 10354 10346 10337 10330 10320 10310 10301 10295 10293 10289 10287 10284 10279 10275
10423 10422 10424 10423 10422 10418 10416 10413 10410 10408 10405 10404 10402 10399 10394 10390 10388 10387 10387 10387 10378 10371 10366 10360 10355 10349 10341 10334 10328 10321 10314 10310 10301 10294 10287 10280 10275 10272 10269 10266 10261 10258 10255
10399 10396 10395 10393 10392 10391 10390 10385 10383 10381 10378 10374 10372 10368 10364 10360 10359 10354 10351 10349 10343 10340 10335 10328 10320 10316 10309 10303 10298 10291 10286 10281 10276 10270 10265 10261 10258 10253 10251 10247 10244 10241 10239
10377 10376 10372 10371 10370 10368 10364 10360 10357 10356 10351 10346 10341 10340 10340 10335 10332 10324 10319 10311 10307 10306 10302 10296 10290 10285 10280 10275 10268 10265 10261 10257 10254 10250 10246 10244 10241 10238 10236 10233 10230 10226 10226
10356 10355 10353 10348 10346 10342 10338 10334 10333 10330 10326 10321 10318 10317 10313 10308 10299 10293 10289 10282 10276 10275 10272 10268 10264 10261 10257 10252 10247 10243 10239 10237 10234 10232 10230 10228 10225 10224 10223 10219 10218 10217 10216
10338 10335 10331 10326 10324 10321 10318 10314 10310 10304 10300 10296 10292 10288 10283 10279 10274 10269 10263 10258 10254 10252 10248 10244 10240 10236 10232 10230 10226 10223 10220 10219 10217 10215 10215 10213 10214 10213 10212 10210 10208 10209 10209
10319 10316 10312 10306 10305 10301 10296 10293 10287 10285 10280 10276 10272 10267 10263 10257 10252 10245 10241 10237 10233 10230 10224 10222 10219 10216 10213 10210 10208 10205 10204 10205 10203 10203 10202 10202 10204 10204 10203 10203 10202 10202 10201
10300 10299 10295 10291 10290 10286 10283 10278 10271 10264 10261 10256 10250 10245 10241 10235 10230 10226 10221 10216 10213 10210 10205 10201 10199 10198 10195 10194 10192 10191 10191 10191 10191 10192 10193 10193 10194 10196 10196 10197 10196 10196 10196
10287 10284 10279 10278 10273 10270 10265 10261 10258 10252 10249 10237 10232 10229 10222 10217 10213 10209 10204 10199 10196 10193 10188 10185 10183 10181 10180 10179 10178 10179 10179 10180 10181 10183 10184 10186 10187 10189 10191 10191 10192 10193 10193
10277 10273 10269 10267 10262 10256 10251 10248 10245 10239 10234 10230 10220 10212 10207 10203 10199 10194 10189 10184 10181 10177 10174 10172 10169 10167 10167 10167 10168 10168 10168 10170 10172 10175 10177 10179 10182 10184 10186 10188 10189 10190 10191
10267 10263 10260 10255 10250 10246 10241 10236 10231 10225 10219 10213 10209 10204 10192 10187 10184 10179 10173 10168 10166 10163 10162 10161 10159 10158 10157 10157 10157 10158 10160 10162 10165 10167 10170 10173 10177 10179 10182 10185 10186 10188 10189
10256 10251 10248 10243 10237 10233 10228 10224 10218 10213 10207 10202 10196 10188 10184 10181 10175 10168 10164 10162 10158 10153 10150 10149 10149 10148 10147 10148 10148 10149 10152 10154 10158 10161 10164 10168 10172 10175 10178 10182 10185 10188 10189
10248 10243 10238 10232 10227 10222 10217 10211 10207 10202 10196 10190 10184 10179 10170 10166 10162 10159 10155 10151 10147 10144 10141 10139 10139 10139 10139 10138 10140 10141 10144 10148 10152 10156 10160 10164 10168 10171 10176 10180 10183 10187 10190
10239 10234 10229 10224 10219 10214 10207 10201 10194 10188 10182 10177 10172 10168 10164 10157 10151 10147 10142 10139 10136 10134 10131 10129 10129 10130 10131 10132 10132 10135 10138 10143 10147 10151 10155 10160 10165 10168 10173 10178 10182 10186 10190
10231 10226 10220 10214 10209 10204 10198 10192 10185 10179 10174 10168 10161 10156 10150 10147 10142 10138 10134 10131 10127 10124 10122 10121 10121 10123 10124 10125 10126 10129 10133 10138 10142 10147 10152 10157 10162 10166 10171 10176 10180 10185 10190
10223 10218 10212 10204 10198 10192 10187 10181 10175 10169 10162 10156 10152 10148 10141 10137 10132 10128 10124 10121 10118 10115 10115 10115 10115 10116 10117 10118 10122 10123 10128 10133 10138 10143 10149 10154 10159 10164 10169 10175 10179 10184 10189
10212 10206 10201 10195 10190 10184 10178 10173 10166 10159 10153 10147 10141 10134 10129 10126 10125 10121 10116 10113 10110 10108 10107 10107 10108 10110 10112 10113 10117 10119 10123 10128 10134 10140 10145 10151 10156 10162 10168 10173 10178 10183 10189